Hourly Data Report for October 05, 2014

All times are specified in Local Standard Time (LST). Add 1 hour to adjust for Daylight Saving Time where and when it is observed.

HALL BEACH A
NUNAVUT

68°46'33.000" N
81°14'33.000" W
9.10 m
2402354
71293
YUX

Download Data

Hourly Data (October 2014)
Hourly Data Report for October 5, 2014
Temp Definition
°C
Dew Point Temp Definition
°C
Rel Hum Definition
%
Wind Dir Definition
10's deg

Wind Spd Definition
km/h
Visibility Definition
km
Stn Press Definition
kPa
Hmdx Definition


Wind Chill Definition


Weather Definition


TIME
00:00 Legend Double Dagger -4.3 -6.3 86 4 11 16.1 102.01   -9 LegendNANA
01:00 Legend Double Dagger -4.2 -6.1 87 9 13 16.1 102.02   -9 LegendNANA
02:00 Legend Double Dagger -4.1 -6.1 86 7 13 16.1 102.06   -9 LegendNANA
03:00 Legend Double Dagger -4.0 -5.9 87 6 15 16.1 102.07   -9 LegendNANA
04:00 Legend Double Dagger -3.7 -5.7 86 7 17 16.1 102.07   -9 LegendNANA
05:00 Legend Double Dagger -3.1 -5.4 84 9 15 16.1 102.11   -8 LegendNANA
06:00 Legend Double Dagger -3.1 -5.4 84 9 18 16.1 102.18   -9 LegendNANA
07:00 Legend Double Dagger -3.6 -5.8 85 9 13 16.1 102.20   -8 LegendNANA
08:00 Legend Double Dagger -3.9 -6.0 86 7 21 16.1 102.21   -10 LegendNANA
09:00 Legend Double Dagger -3.6 -5.6 86 6 24 16.1 102.23   -10 LegendNANA
10:00 Legend Double Dagger -3.3 -5.7 83 8 26 16.1 102.22   -10 LegendNANA
11:00 Legend Double Dagger -3.3 -5.6 84 7 26 16.1 102.22   -10 LegendNANA
12:00 Legend Double Dagger -3.0 -5.2 85 7 28 16.1 102.25   -10 LegendNANA
13:00 Legend Double Dagger -2.7 -4.9 85 7 32 16.1 102.22   -10 LegendNANA
14:00 Legend Double Dagger -3.1 -5.2 85 6 34 16.1 102.23   -11 LegendNANA
15:00 Legend Double Dagger -3.1 -5.2 85 7 34 16.1 102.24   -11 LegendNANA
16:00 Legend Double Dagger -3.2 -5.5 84 6 35 16.1 102.27   -11 LegendNANA
17:00 Legend Double Dagger -3.2 -5.0 88 6 35 16.1 102.30   -11 LegendNANA
18:00 Legend Double Dagger -3.1 -5.0 87 7 34 16.1 102.30   -11 LegendNANA
19:00 Legend Double Dagger -3.1 -5.2 85 6 30 16.1 102.29   -11 LegendNANA
20:00 Legend Double Dagger -2.9 -4.9 86 7 34 16.1 102.28   -11 LegendNANA
21:00 Legend Double Dagger -2.8 -4.4 89 7 32 16.1 102.25   -10 LegendNANA
22:00 Legend Double Dagger -2.5 -3.9 90 7 37 16.1 102.19   -10 LegendNANA
23:00 Legend Double Dagger -2.3 -3.9 89 8 39 16.1 102.20   -10 LegendNANA

Notes on Data Quality.

Legend

  • E = Estimated
  • M = Missing
  • NA = Not Available
  • ‡ = Partner data that is not subject to review by the National Climate Archives
Date modified: